Regional Weather Roundup
Issued by NWS

Home | Current Version | Previous Version | Text Only | Print | Product List | Glossary On
Versions: 1 2 3 4 5 6 7 8 9 10 11 12 13 14 15 16 17 18 19 20 21 22 23 24 25 26 27
000
ASCA42 TJSJ 241810
RWRPR
PUERTO RICO/U.S. VIRGIN ISLANDS HOURLY WEATHER ROUNDUP
NATIONAL WEATHER SERVICE SAN JUAN PR
200 PM AST FRI FEB 24 2017

PRZ001>002-007>008-010-241900-
PUERTO RICO

CITY           SKY/WX    TMP DP  RH WIND       PRES   REMARKS
SAN JUAN LMM   MOSUNNY   90  64  43 SE10      29.90F HX  91
AGUADILLA      PTSUNNY   82  70  65 W12G17    29.93F
CEIBA          SUNNY     84  68  58 S13       29.95F
$$

VIZ001>002-241900-
U.S. VIRGIN ISLANDS

CITY           SKY/WX    TMP DP  RH WIND       PRES   REMARKS
CHARLOTTE AMA  MOSUNNY   82  70  65 SE10      29.93F
CHRISTIANSTED  SUNNY     82  66  57 SE10      29.94F
$$

HOURLY WEATHER ROUNDUP FOR THE NEWS MEDIA

CITY           SKY/WX    TMP DP  RH WIND       PRES   REMARKS
ORLANDO        PTSUNNY   81  62  52 NE13      29.81F
NEW YORK       MOSUNNY   60  52  74 S16       29.93F
NEWARK         PTSUNNY   73  53  49 S13       29.88F
CHICAGO        LGT RAIN  39  37  92 N13       29.46F FOG     WCI  31
HARTFORD       SUNNY     67  51  56 SW15G28   29.93F
BOSTON         PTSUNNY   71  54  54 S20       29.87F
DALLAS         MOSUNNY   57  35  43 NW16G23   29.89R
PHILADELPHIA   MOSUNNY   72  54  53 SW12      29.89F
LOS ANGELES    MOSUNNY   56  28  34 N7        30.19S
WASHINGTON DC  PTSUNNY   75  52  44 S13G20    29.84F



USA.gov is the U.S. government's official web portal to all federal, state and local government web resources and services.